Chapel Hill, NC

5:36 AM EDT on June 24, 2017 (GMT -0400)
Williams

Weather History for KIGX - March, 2014

Change the Weather History Date:

Thursday, March 27, 2014

  Actual Average Record
Temperature  
Mean Temperature 42 °F -  
Max Temperature 59 °F 63 °F 88 °F (1949)
Min Temperature 26 °F 38 °F 19 °F (1955)
Degree Days  
Heating Degree Days 24    
Moisture  
Dew Point 18 °F    
Average Humidity 40    
Maximum Humidity 66    
Minimum Humidity 19    
Precipitation  
Precipitation 0.00 in - - ()
Sea Level Pressure  
Sea Level Pressure 30.38 in    
Wind  
Wind Speed 2 mph (ESE)    
Max Wind Speed 8 mph    
Max Gust Speed 17 mph    
Visibility 10 miles    
Events      
Averages and records for this station are not official NWS values.
T = Trace of Precipitation, MM = Missing Value Source: NWS Daily Summary

Daily Weather History Graph

Daily Weather History Graph

Search for Another Location

Airport or City:

Trip Planner

Search our weather history database for the weather conditions in past years. The results will help you decide how hot, cold, wet, or windy it might be!

Date:

Astronomy

Mar. 27, 2014 Rise Set
Actual Time 7:09 AM EDT 7:33 PM EDT
Civil Twilight 6:44 AM EDT 7:59 PM EDT
Nautical Twilight 6:14 AM EDT 8:29 PM EDT
Astronomical Twilight 5:43 AM EDT 9:00 PM EDT
Moon 4:53 AM EDT (3/27) 4:24 PM EDT (3/27)
Length of Visible Light 13h 15m
Length of Day
12h 24m
Waning Crescent, 13% of the Moon is Illuminated
Mar 27
Waning Crescent
Mar 30
New
Apr 7
First Quarter
Apr 15
Full
Apr 22
Last Quarter

Hourly Weather History & Observations

Time (EDT) Temp. Windchill Dew Point Humidity Pressure Visibility Wind Dir Wind Speed Gust Speed Precip Events Conditions
12:56 AM 28.9 °F - 14.0 °F 54% 30.35 in 10.0 mi Calm Calm - N/A   Clear
1:56 AM 27.0 °F - 14.0 °F 58% 30.37 in 10.0 mi Calm Calm - N/A   Clear
2:56 AM 27.0 °F - 14.0 °F 58% 30.36 in 10.0 mi Calm Calm - N/A   Clear
3:56 AM 27.0 °F - 16.0 °F 63% 30.38 in 10.0 mi Calm Calm - N/A   Clear
4:56 AM 26.1 °F - 14.0 °F 60% 30.40 in 10.0 mi Calm Calm - N/A   Clear
5:56 AM 26.1 °F - 15.1 °F 63% 30.41 in 10.0 mi Calm Calm - N/A   Clear
6:56 AM 26.1 °F - 16.0 °F 66% 30.42 in 10.0 mi Calm Calm - N/A   Clear
7:56 AM 28.0 °F 24.2 °F 17.1 °F 63% 30.44 in 10.0 mi NE 3.5 mph - N/A   Clear
8:56 AM 35.1 °F 30.1 °F 15.1 °F 44% 30.46 in 10.0 mi East 5.8 mph - N/A   Clear
9:56 AM 41.0 °F 39.0 °F 16.0 °F 36% 30.47 in 10.0 mi Variable 3.5 mph - N/A   Clear
10:56 AM 44.1 °F 41.5 °F 14.0 °F 30% 30.47 in 10.0 mi Variable 4.6 mph - N/A   Clear
11:56 AM 48.0 °F - 14.0 °F 26% 30.46 in 10.0 mi Variable 3.5 mph - N/A   Clear
12:56 PM 51.1 °F - 15.1 °F 24% 30.45 in 10.0 mi Variable 4.6 mph - N/A   Clear
1:56 PM 54.0 °F - 16.0 °F 22% 30.40 in 10.0 mi Variable 4.6 mph - N/A   Clear
2:56 PM 55.9 °F - 14.0 °F 19% 30.38 in 10.0 mi Variable 6.9 mph - N/A   Clear
3:56 PM 57.9 °F - 16.0 °F 19% 30.35 in 10.0 mi Variable 6.9 mph 17.3 mph N/A   Clear
4:56 PM 57.9 °F - 18.0 °F 21% 30.32 in 10.0 mi SSE 8.1 mph - N/A   Clear
5:56 PM 57.9 °F - 15.1 °F 19% 30.32 in 10.0 mi South 8.1 mph 16.1 mph N/A   Clear
6:56 PM 55.9 °F - 18.0 °F 23% 30.31 in 10.0 mi North - - N/A   Clear
7:56 PM 54.0 °F - 19.9 °F 26% 30.30 in 10.0 mi Variable 3.5 mph - N/A   Clear
8:56 PM 53.1 °F - 24.1 °F 32% 30.29 in 10.0 mi Variable 3.5 mph - N/A   Clear
9:56 PM 51.1 °F - 25.0 °F 36% 30.32 in 10.0 mi Calm Calm - N/A   Clear
10:56 PM 50.0 °F - 30.0 °F 46% 30.31 in 10.0 mi Variable 5.8 mph - N/A   Clear
11:56 PM 48.9 °F - 33.1 °F 54% 30.28 in 10.0 mi Variable 4.6 mph - N/A   Clear